EHI
0 0 0 0 0 0 0 0 0 0 0 0 0 0 0 0 0 0 0 0 0 0 0 0 0 0 0 0 0 0 0 0 0 0 0 0 0 0 0 0 0 0 0 0
0 0 0 0 0 0 0 0 0 0 0 0 0 0 0 0 0 0 0 0 0 0 0 0 0 0 0 0 0 0 0 0 0 0 0 0 0 0 0 0 0 0 0 0
0 0 0 0 0 0 0 0 0 0 0 0 0 0 0 0 0 0 0 0 0 0 0 0 0 0 0 0 0 0 0 0 0 0 0 0 0 0 0 0 0 0 0 0
0 0 0 0 0 0 0 0 0 0 0 0 0 0 0 0 0 0 0 0 0 0 0 0 0 0 0 0 0 0 0 0 0 0 0 0 0 0 0 0 0 0 0 0
0 0 0 0 0 0 0 0 0 0 0 0 0 0 0 0 0 0 0 0 0 0 0 0 0 0 0 0 0 0 0 0 0 0 0 0 0 0 0 0 0 0 0 0
0 0 0 0 0 0 0 0 0 0 0 0 0 0 0 0 0 0 0 0 0 0 0 0 0 0 0 0 0 0 0 0 0 0 0 0 0 0 0 0 0 0 0 0
0 0 0 0 0 0 0 0 0 0 0 0 0 0 0 0 0 0 0 0 0 0 0 0 0 0 0 0 0 0 0 0 0 0 0 0 0 0 0 0 0 0 0 0
0 0 0 0 0 0 0 0 0 0 0 0 0 0 0 0 0 0 0 0 0 0 0 0 0 0 0 0 0 0 0 0 0 0 0 0 0 0 0 0 0 0 0 0
0 0 0 0 0 0 0 0 0 0 0 0 0 0 0 0 0 0 0 0 0 0 0 0 0 0 0 0 0 0 0 0 0 0 0 0 0 0 0 0 0 0 0 0
0 0 0 0 0 0 0 0 0 0 0 0 0 0 0 0 0 0 0 0 0 0 0 0 0 0 0 0 0 0 0 0 0 0 0 0 0 0 0 0 0 0 0 0
0 0 0 0 0 0 0 0 0 0 0 0 0 0 0 0 0 0 0 0 0 0 0 0 0 0 0 0 0 0 0 0 0 0 0 0 0 0 0 0 0 0 0 0
0 0 0 0 0 0 0 0 0 0 0 0 0 0 0 0 0 0 0 0 0 0 0 0 0 0 0 0 0 0 0 0 0 0 0 0 0 0 0 0 0 0 0 0
0 0 0 0 0 0 0 0 0 0 0 0 0 0 0 0 0 0 0 0 0 0 0 0 0 0 0 0 0 0 0 0 0 0 0 0 0 0 0 0 0 0 0 0
0 0 0 0 0 0 0 0 0 0 0 0 0 0 0 0 0 0 0 0 0 0 0 0 0 0 0 0 0 0 0 0 0 0 0 0 0 0 0 0 0 0 0 0
0 0 0 0 0 0 0 0 0 0 0 0 0 0 0 0 0 0 0 0 0 0 0 0 0 0 0 0 0 0 0 0 0 0 0 0 0 0 0 0 0 0 0 0
0 0 0 0 0 0 0 0 0 0 0 0 0 0 0 0 0 0 0 0 0 0 0 0 0 0 0 0 0 0 0 0 0 0 0 0 0 0 0 0 0 0 0 0
0 0 0 0 0 0 0 0 0 0 0 0 0 0 0 0 0 0 0 0 0 0 0 0 0 0 0 0 0 0 0 0 0 0 0 0 0 0 0 0 0 0 0 0
0 0 0 0 0 0 0 0 0 0 0 0 0 0 0 0 0 0 0 0 0 0 0 0 0 0 0 0 0 0 0 0 0 0 0 0 0 0 0 0 0 0 0 0
0 0 0 0 0 0 0 0 0 0 0 0 0 0 0 0 0 0 0 0 0 0 0 0 0 0 0 0 0 0 0 0 0 0 0 0 0 0 0 0 0 0 0 0
0 0 0 0 0 0 0 0 0 0 0 0 0 0 0 0 0 0 0 0 0 0 0 0 0 0 0 0 0 0 0 0 0 0 0 0 0 0 0 0 0 0 0 0
0 0 0 0 0 0 0 0 0 0 0 0 0 0 0 0 0 0 0 0 0 0 0 0 0 0 0 0 0 0 0 0 0 0 0 0 0 0 0 0 0 0 0 0
0 0 0 0 0 0 0 0 0 0 0 0 0 0 0 0 0 0 0 0 0 0 0 0 0 0 0 0 0 0 0 0 0 0 0 0 0 0 0 0 0 0 0 0
0 0 0 0 0 0 0 0 0 0 0 0 0 0 0 0 0 0 0 0 0 0 0 0 0 0 0 0 0 0 0 0 0 0 0 0 0 0 0 0 0 0 0 0
0 0 0 0 0 0 0 0 0 0 0 0 0 0 0 0 0 0 0 0 0 0 0 0 0 0 0 0 0 0 0 0 0 0 0 0 0 0 0 0 0 0 0 0
0 0 0 0 0 0 0 0 0 0 0 0 0 0 0 0 0 0 0 0 0 0 0 0 0 0 0 0 0 0 0 0 0 0 0 0 0 0 0 0 0 0 0 0
0 0 0 0 0 0 0 0 0 0 0 0 0 0 0 0 0 0 0 0 0 0 0 0 0 0 0 0 0 0 0 0 0 0 0 0 0 0 0 0 0 0 0 0
0 0 0 0 0 0 0 0 0 0 0 0 0 0 0 0 0 0 0 0 0 0 0 0 0 0 0 0 0 0 0 0 0 0 0 0 0 0 0 0 0 0 0 0
Wind_Speed
17 18 15 11 11 12 11 11 11 15 17 8 5 9 12 14 15 17 19 17 12 10 8 8 8 7 8 8 9 9 10 11 11 11 11 10 10 10 10 11 12 9 9 9
17 16 8 9 12 12 11 11 13 16 16 9 10 12 15 17 20 22 18 15 15 14 13 11 9 9 9 9 8 8 8 9 10 11 12 12 12 12 11 11 11 10 10 9
13 14 9 8 11 11 11 13 15 18 16 14 14 16 19 21 23 19 17 19 19 17 13 11 11 10 10 9 8 8 9 10 10 10 11 12 14 13 12 11 11 10 9 8
10 11 7 7 6 10 12 14 15 14 16 17 18 19 18 19 18 19 21 21 19 18 17 15 15 14 10 12 10 11 10 11 11 11 12 11 10 11 10 9 8 8 8 8
8 12 4 7 10 13 16 16 12 15 18 21 22 23 19 18 21 21 21 19 17 19 20 16 15 14 13 13 12 12 13 12 12 12 12 11 11 10 8 8 7 7 7 8
9 11 8 7 13 16 16 9 14 20 21 22 24 20 17 21 23 22 20 18 17 18 19 15 12 12 13 15 13 13 13 12 12 12 12 13 11 10 9 8 8 9 8 8
10 12 6 9 15 16 12 13 20 21 22 22 21 20 21 24 22 21 20 19 18 17 16 13 12 12 13 13 13 13 13 12 13 12 12 13 12 10 9 9 10 10 8 7
9 9 7 14 13 12 12 16 19 21 21 22 22 23 23 23 21 21 21 21 21 16 14 12 11 11 13 12 12 12 13 15 15 14 14 14 10 9 9 8 9 10 9 8
6 7 9 12 12 13 16 18 18 20 22 23 24 24 25 23 21 22 21 20 19 18 16 12 10 10 14 13 12 14 15 16 16 16 13 12 11 10 9 8 8 9 9 8
7 9 13 13 14 16 17 18 20 21 22 23 24 25 25 23 22 21 20 20 19 20 19 17 15 15 14 15 14 15 16 16 14 13 12 11 9 9 8 8 8 8 8 6
10 11 13 12 16 18 18 19 21 21 22 23 24 25 24 22 21 21 20 19 20 20 20 21 19 19 18 16 14 15 15 13 12 11 10 9 9 8 9 8 6 5 5 4
8 11 12 15 17 18 19 20 21 22 22 22 22 24 24 22 20 20 21 21 21 21 22 22 21 20 17 15 14 14 12 11 8 7 7 7 8 8 10 9 7 7 7 5
8 12 13 16 17 18 19 21 21 21 22 22 22 22 23 22 21 21 21 21 21 22 22 21 20 18 16 14 13 12 11 10 7 7 7 7 7 7 6 7 7 7 6 5
8 10 14 14 16 17 19 21 21 21 21 21 21 22 22 22 22 22 21 21 21 22 21 19 17 16 14 12 10 10 9 9 8 6 6 6 6 6 6 5 5 5 4 6
9 10 13 15 16 17 18 19 20 20 21 21 21 21 23 22 22 22 21 20 20 20 19 17 16 15 13 10 9 8 6 4 4 4 4 4 5 5 5 5 4 4 5 6
10 11 13 15 16 18 19 20 20 21 21 22 21 22 22 21 20 20 20 20 20 20 18 16 15 14 12 10 8 6 3 3 4 3 2 3 3 4 4 4 5 5 6 7
10 11 13 15 16 17 18 18 19 20 20 21 22 22 21 20 20 20 21 20 18 17 16 15 14 14 13 10 8 5 3 2 2 2 2 2 3 4 4 4 4 5 6 8
8 10 11 12 14 16 17 18 18 19 18 19 21 21 20 19 20 20 20 20 18 17 16 15 15 14 11 9 7 5 4 3 1 1 1 1 2 2 2 3 4 6 8 8
9 10 11 12 13 14 15 16 17 17 17 18 19 19 18 17 17 18 19 18 17 17 18 17 17 12 9 9 9 5 4 3 1 0 1 2 2 2 2 3 4 6 8 8
8 10 11 12 13 13 14 15 16 15 15 16 17 18 18 18 17 17 18 15 13 14 18 18 14 10 9 9 11 6 5 5 3 1 1 1 2 3 3 4 4 5 6 7
9 10 11 12 12 13 13 14 14 15 15 16 16 17 17 17 16 14 14 13 15 18 18 16 11 9 9 10 11 5 4 4 3 2 2 1 2 2 2 3 4 4 5 5
7 8 10 11 12 12 12 12 13 14 15 15 16 17 18 17 17 15 13 10 14 19 15 10 10 12 13 13 7 3 1 1 1 1 1 1 1 1 2 3 4 4 5 6
6 7 8 10 11 12 12 11 13 12 13 15 15 16 16 14 11 11 13 12 13 19 14 10 14 17 16 9 5 3 1 1 2 2 3 3 3 3 4 5 5 6 7 7
5 6 7 8 10 10 11 11 12 10 12 12 13 14 13 12 12 11 10 14 17 18 13 12 16 17 13 7 6 5 4 3 1 1 2 3 3 4 4 5 6 6 7 10
5 6 7 7 8 7 9 10 11 11 12 11 14 15 12 10 12 13 13 15 18 17 13 14 16 16 10 8 7 6 5 4 4 2 1 2 2 3 4 4 5 6 6 7
5 6 5 5 5 4 7 8 8 9 10 11 12 12 12 11 13 13 12 15 18 17 14 12 12 11 9 10 10 9 7 5 3 2 2 2 4 4 4 5 7 5 4 4
7 6 4 3 3 5 6 7 8 9 9 11 12 11 12 12 12 13 14 13 13 14 13 13 12 11 10 11 11 11 10 9 8 5 3 2 3 4 5 6 5 5 6 6
Wind_Direction
318 314 321 348 25 25 17 2 337 334 329 344 10 341 327 319 320 321 316 314 322 329 321 310 304 294 285 276 271 266 260 257 256 256 255 256 258 261 265 269 271 272 279 290
311 312 334 56 39 21 11 358 338 324 319 3 354 334 325 325 324 316 316 332 332 323 318 314 310 304 298 291 286 277 275 275 269 262 258 255 254 253 254 257 258 259 258 262
307 309 309 64 31 14 356 345 333 322 334 354 339 328 326 325 314 318 338 330 323 319 315 309 306 299 291 293 296 297 293 288 285 280 273 260 257 254 247 248 250 251 255 256
303 326 8 75 39 5 341 335 347 1 359 343 331 328 323 312 325 340 329 322 318 315 310 303 299 297 294 297 293 293 293 293 293 290 288 283 267 258 254 252 251 252 257 260
338 335 34 101 31 1 334 320 26 356 340 335 331 319 313 331 336 324 317 315 312 307 303 300 297 292 289 288 288 288 289 289 290 288 286 287 286 277 268 262 258 254 258 257
346 330 354 45 9 349 321 298 14 347 335 332 326 319 321 327 319 315 314 308 303 301 299 295 290 288 285 286 283 284 286 287 287 286 282 279 280 282 283 279 269 259 252 253
341 323 60 18 358 350 336 331 336 331 329 325 322 313 311 315 315 312 308 305 303 299 297 294 290 285 282 284 286 290 292 292 289 283 278 274 270 267 268 271 271 265 260 257
336 333 9 9 358 357 331 327 330 328 323 320 316 312 312 312 312 309 309 309 307 303 297 292 287 288 291 294 299 300 299 295 288 281 275 272 267 265 261 262 266 264 256 251
335 321 353 8 354 349 341 332 328 323 322 319 316 315 314 314 312 312 312 311 309 306 302 300 303 307 305 305 304 298 293 288 283 278 271 264 262 262 260 254 255 256 251 242
320 319 355 351 349 343 335 328 325 323 321 319 316 316 315 316 316 317 316 317 318 319 319 319 321 318 310 304 299 293 288 284 279 274 268 261 253 251 251 247 246 248 249 243
314 343 340 339 339 333 328 329 324 324 323 321 318 317 319 319 320 322 325 329 332 329 323 318 315 308 302 297 291 284 281 278 275 270 265 262 257 249 246 241 233 247 257 241
324 337 324 324 331 329 330 329 329 328 325 324 323 323 324 323 327 331 334 333 327 321 315 310 306 301 297 291 285 281 278 274 268 265 263 258 253 254 236 227 225 244 252 249
328 330 325 324 326 332 332 331 330 329 327 328 328 329 329 332 334 334 330 326 321 316 311 307 303 300 297 292 285 281 275 273 269 263 257 252 246 240 233 214 212 225 229 207
339 335 325 325 331 335 334 332 331 329 330 331 331 335 337 336 334 331 327 324 319 315 312 310 309 308 305 299 289 283 279 277 272 262 253 247 241 231 222 206 197 193 176 162
339 330 324 329 334 336 334 333 333 333 333 336 340 342 340 338 334 330 327 324 321 320 321 322 321 321 321 314 304 296 291 285 278 270 251 238 228 216 211 200 204 188 143 127
328 328 331 335 337 336 336 336 335 335 338 340 343 343 341 338 331 327 327 328 328 328 328 329 329 329 328 322 318 312 307 302 297 282 250 220 209 205 205 198 198 181 156 144
328 331 337 337 337 336 336 337 337 338 340 342 343 342 339 336 331 331 332 332 330 328 331 333 334 333 331 335 338 338 342 329 292 264 247 226 208 200 199 195 187 164 150 148
325 331 338 338 337 334 335 337 339 340 342 343 343 340 338 336 333 332 332 331 332 337 342 341 340 334 337 356 350 348 353 355 354 219 204 188 192 197 195 180 166 141 133 140
324 334 341 343 339 337 336 337 339 341 344 345 343 339 336 334 332 332 332 333 339 343 341 339 333 335 353 8 349 347 358 7 17 30 138 160 195 179 167 160 147 138 135 143
326 339 343 340 341 340 337 339 338 342 346 347 341 337 336 336 336 336 334 335 340 340 333 330 332 344 355 360 342 344 1 9 25 57 120 146 145 145 147 140 134 133 137 147
333 339 340 340 339 338 339 338 339 343 348 347 342 338 335 334 337 339 336 337 336 337 333 327 337 349 348 337 320 330 357 2 10 21 45 79 127 150 149 144 148 156 158 162
332 335 336 335 334 335 335 337 342 345 348 345 341 340 339 338 339 339 339 336 330 332 332 332 342 338 330 318 305 321 351 348 328 308 285 252 231 205 197 196 189 187 186 185
328 330 332 329 331 326 330 341 346 347 347 344 343 343 340 338 336 337 338 336 333 330 329 330 331 330 325 318 318 326 326 272 215 214 215 212 209 203 199 197 191 186 179 176
313 323 323 324 323 322 337 343 344 345 346 344 346 346 343 340 340 343 336 330 334 332 332 330 331 334 332 334 343 349 353 354 10 154 167 173 176 176 177 170 163 166 168 169
300 308 307 320 319 332 338 342 342 346 349 350 348 350 352 349 342 338 337 338 341 340 339 338 341 340 348 357 1 1 3 0 354 356 89 125 140 141 145 148 153 159 162 159
264 276 291 294 304 335 346 346 342 348 350 352 348 350 352 352 346 343 341 343 346 345 346 346 347 350 359 6 11 11 7 356 342 352 36 96 133 145 146 148 148 144 142 138
240 251 245 285 4 15 353 344 345 349 357 356 346 352 354 354 350 346 347 348 351 352 352 352 352 355 3 8 12 16 14 12 8 3 10 48 100 129 143 148 149 153 159 159